Wind_Speed
93 93 94 94 94 94 95 95 95 96 96 97 97 98 98 99 99 100 100 101 101 102 102 102 102 102 102 102 102 102 102 102 102 101 101 100 100 99 99 99 99 99 99 99 99 99 99 100 100 100 99 99 99 98 98 97 97 96 95 94 94 93 92 92 92 91 91 91 90 90 89 88 87 86 86 85 85 84 84 84 84 84 84 84 84 84
94 94 94 94 94 95 95 96 96 97 97 98 99 99 99 100 100 101 101 102 102 102 103 103 103 103 103 102 102 102 102 102 102 102 102 101 100 100 99 99 99 99 100 100 100 100 100 100 100 100 99 99 98 97 96 95 94 94 93 92 91 91 90 90 89 89 89 88 87 86 85 84 83 83 82 82 81 81 80 80 80 80 80 80 80 80
94 94 94 95 95 95 96 97 97 98 98 99 99 100 100 101 101 102 102 103 103 103 103 103 103 103 103 103 103 103 103 103 103 103 103 103 102 102 101 101 101 101 101 101 101 101 101 101 100 100 99 98 97 96 95 93 92 91 90 90 89 88 88 88 87 87 86 85 84 83 81 80 80 79 79 78 78 77 77 76 76 76 76 76 76 76
94 95 95 96 96 96 97 98 98 99 99 100 100 101 101 101 102 102 103 103 103 103 103 103 103 103 103 103 104 104 104 104 105 105 105 105 104 104 104 103 103 103 103 103 103 102 102 101 100 99 98 97 96 94 93 92 90 89 88 88 87 87 86 86 85 84 83 82 80 79 78 77 76 76 75 75 74 74 73 73 72 72 72 72 72 72
95 95 96 96 97 97 98 99 99 100 100 100 101 101 101 102 102 103 103 103 103 103 103 103 103 103 103 104 104 104 105 105 105 106 106 106 106 106 106 106 105 105 105 104 104 103 102 101 100 99 97 96 94 93 91 90 89 88 87 86 86 85 85 84 83 82 80 78 77 76 75 74 73 73 72 71 71 70 70 70 69 69 69 69 68 68
96 96 96 97 97 98 99 99 100 101 101 101 101 102 102 102 102 102 103 103 103 103 103 103 103 103 103 104 104 104 105 105 105 106 106 107 107 107 107 107 106 106 105 104 103 102 101 100 99 97 96 94 93 91 90 89 87 86 85 85 84 83 82 82 80 79 77 75 74 73 72 71 71 70 69 69 68 68 67 67 66 66 66 65 65 65
96 97 97 98 98 99 100 100 101 101 102 102 102 102 102 102 102 102 103 102 103 103 103 103 103 103 103 104 104 105 105 105 105 106 106 106 107 107 106 106 106 105 104 103 102 101 100 98 97 96 94 93 91 90 88 87 86 85 84 83 82 81 80 79 78 76 74 73 71 71 70 69 68 68 67 66 66 65 65 64 64 63 63 62 62 62
97 98 98 99 99 100 101 101 102 102 102 102 103 103 103 103 103 102 102 102 102 103 103 103 103 104 104 104 105 105 106 106 106 106 106 106 106 105 105 104 104 103 102 101 100 99 98 97 96 94 93 91 90 88 87 85 84 83 82 81 81 80 79 77 76 74 72 71 70 69 68 67 66 66 65 65 64 63 62 62 61 61 60 60 59 59
97 98 99 99 100 101 102 102 103 103 103 103 103 103 104 104 103 103 102 102 103 103 103 104 104 105 105 105 106 106 106 106 106 106 106 105 105 104 103 102 102 101 100 99 99 98 97 95 94 93 91 90 88 87 85 84 82 81 80 80 79 78 77 75 73 72 70 69 68 67 66 65 64 64 63 63 62 61 60 60 59 58 58 57 57 56
98 99 100 100 101 101 102 103 103 103 103 103 104 103 103 103 103 103 103 103 103 103 104 104 105 106 106 106 106 106 107 106 106 105 105 104 104 103 102 101 100 100 99 98 98 97 95 94 93 91 90 88 86 85 83 81 80 79 79 78 77 76 75 73 71 70 68 67 66 65 64 64 63 62 62 61 60 59 58 57 57 56 55 55 54 54
99 99 100 101 102 102 103 103 104 104 104 104 104 104 103 103 103 104 104 104 104 104 104 105 105 106 107 108 107 107 107 106 106 105 104 103 102 102 101 100 99 99 98 98 97 96 95 93 91 90 88 86 84 82 80 79 78 77 77 76 76 75 73 71 69 67 66 65 64 63 62 62 61 61 60 59 58 57 56 55 55 54 53 53 52 52
100 100 101 102 102 103 103 104 104 104 104 104 105 105 104 103 103 104 104 105 105 105 106 106 106 106 107 108 108 108 107 106 105 104 103 102 101 100 100 99 99 98 98 97 97 96 94 92 90 88 86 84 82 80 78 76 75 75 75 75 74 73 71 69 67 65 64 63 62 61 61 60 59 59 58 57 56 55 54 54 53 52 51 51 50 50
100 101 102 102 103 103 104 104 105 105 105 105 105 105 105 105 104 104 105 105 105 106 106 107 107 107 107 107 107 107 107 106 104 103 102 101 100 99 99 98 98 97 96 96 95 94 92 90 88 86 84 82 79 77 75 74 73 73 73 73 73 71 69 67 65 63 62 61 60 59 59 58 58 57 56 55 54 53 52 52 51 50 50 49 49 48
101 102 102 103 104 104 104 105 105 105 105 105 105 105 105 105 105 105 106 106 106 106 106 107 108 108 107 107 106 106 105 104 103 102 100 100 99 98 98 97 96 95 94 94 93 92 90 88 86 84 81 79 77 75 73 72 71 71 71 71 71 69 67 65 63 61 60 59 58 57 57 56 56 55 54 53 52 51 51 50 49 48 48 47 47 46
102 103 103 104 104 105 105 105 105 106 106 105 105 105 105 106 106 106 106 107 107 107 107 108 108 107 106 105 104 104 103 102 101 100 99 98 97 96 96 95 94 93 92 91 90 89 87 85 83 81 79 77 75 73 71 70 70 70 70 70 69 67 65 63 61 59 58 57 56 56 55 54 54 53 52 51 50 49 49 48 47 46 46 45 45 44
102 103 104 104 105 105 105 105 105 106 106 106 106 106 106 107 107 107 107 108 108 108 108 108 107 106 105 103 102 100 100 99 99 98 97 96 96 94 93 93 92 90 89 88 87 86 84 82 80 78 76 74 72 70 69 68 68 68 68 68 67 65 63 60 59 57 56 55 54 54 53 53 52 51 50 49 48 47 47 46 45 45 44 44 43 43
103 104 104 105 105 105 105 105 105 106 106 106 106 106 106 107 107 108 108 108 108 108 108 107 106 105 103 101 99 98 97 96 96 95 94 94 93 92 91 90 88 87 86 85 84 83 81 80 77 75 73 71 70 68 67 67 66 67 67 66 65 63 60 58 57 55 54 54 53 52 51 51 50 49 48 47 46 45 45 44 43 43 42 42 41 41
104 104 104 105 105 105 105 106 106 106 106 106 106 106 106 107 107 108 108 108 108 108 107 105 103 102 101 99 98 96 94 94 93 92 91 91 90 88 87 86 84 83 82 81 81 80 79 77 75 73 71 69 67 66 65 65 65 65 65 64 63 60 58 56 55 54 53 52 51 50 50 49 48 47 46 45 44 43 43 42 41 41 40 40 39 39
104 104 105 105 106 106 106 106 106 106 106 107 107 107 107 107 107 108 108 108 107 107 105 104 101 99 98 97 96 94 93 92 91 90 89 87 86 85 83 82 81 79 79 78 78 77 76 74 73 71 69 67 65 64 64 64 64 63 63 62 60 58 56 54 53 52 51 50 49 48 48 47 46 45 44 43 42 41 41 40 39 39 38 38 38 37
105 105 105 105 106 106 106 106 106 106 106 107 107 107 108 107 107 107 106 106 105 104 103 101 99 98 96 95 94 92 91 90 88 87 86 84 83 82 80 79 77 76 76 75 74 74 73 72 70 68 66 65 63 62 62 62 62 62 61 59 58 56 54 53 51 50 49 48 47 46 46 45 44 43 42 41 40 39 39 38 38 37 37 36 36 36
105 105 105 105 106 106 106 106 106 106 107 107 107 108 108 107 107 105 104 103 102 101 99 98 97 96 95 93 92 90 89 87 86 85 83 81 80 79 77 76 75 74 73 72 72 71 70 69 67 65 64 62 61 61 61 60 60 60 59 57 55 54 52 51 50 48 47 46 45 45 44 43 42 42 40 39 38 38 37 37 36 36 35 35 34 34
105 106 106 106 106 106 106 106 106 106 107 107 108 108 108 107 106 104 102 100 99 97 96 95 95 94 93 91 90 88 86 84 83 82 80 79 77 76 75 74 73 72 71 70 69 68 67 66 64 62 61 60 59 59 59 59 58 58 56 55 53 52 50 49 48 46 45 44 43 43 42 41 41 40 39 38 37 36 35 35 34 34 34 33 33 33
105 106 106 106 106 106 106 106 106 107 107 107 107 107 106 105 104 102 100 98 96 95 94 93 92 91 90 88 87 85 83 81 80 79 78 77 75 74 73 72 71 70 69 68 67 66 64 63 61 60 59 58 57 57 57 56 56 55 54 52 51 50 49 47 46 44 43 42 41 41 40 40 39 38 37 36 35 35 34 34 33 33 32 32 32 32
106 106 106 106 106 106 106 106 107 107 107 106 106 105 104 102 100 99 97 95 94 92 91 90 89 87 86 85 83 81 79 78 77 76 76 74 73 72 71 70 69 68 67 66 65 64 62 61 59 57 56 56 55 55 55 54 54 52 51 50 49 48 47 45 44 42 41 40 40 39 39 38 37 36 35 35 34 33 33 32 32 31 31 31 31 31
106 106 106 106 106 106 106 106 106 106 106 105 104 103 101 99 98 96 94 93 92 90 89 87 86 84 83 81 80 78 77 75 75 74 73 72 71 70 69 68 67 66 65 64 63 62 60 58 57 55 54 54 53 53 53 52 51 50 49 48 47 46 45 43 42 40 39 39 38 38 37 36 35 35 34 33 33 32 32 31 31 30 30 30 30 30
105 105 105 105 105 105 106 106 106 105 104 103 102 100 98 97 95 94 92 91 89 88 86 84 83 81 80 78 77 76 74 73 72 72 71 70 69 68 66 65 65 64 63 62 61 60 58 56 54 53 52 52 51 51 50 50 49 48 47 46 45 44 42 41 40 39 38 37 37 36 35 35 34 33 33 32 31 31 30 30 29 29 29 29 29 29
104 104 104 104 105 105 105 105 104 103 102 101 99 97 96 94 93 92 91 89 87 86 84 82 80 79 77 76 74 73 72 71 70 69 69 68 67 66 65 63 62 62 61 60 59 58 56 54 52 51 50 50 49 49 48 47 46 45 44 43 42 41 40 39 38 37 36 36 35 35 34 33 33 32 31 31 30 30 29 29 28 28 28 28 28 27
103 103 104 104 104 104 104 103 102 101 99 98 96 95 94 93 92 91 89 87 85 83 81 80 78 77 75 74 73 71 70 69 68 67 67 66 65 64 63 61 60 60 59 58 57 55 53 51 50 49 48 48 47 47 46 45 44 43 42 41 40 39 38 37 36 35 35 34 34 33 33 32 32 31 30 30 29 29 28 28 27 27 27 27 27 26
103 103 103 103 103 103 102 101 100 98 97 96 94 93 92 91 90 89 87 85 83 81 79 78 76 75 74 72 71 70 68 67 67 66 65 64 63 62 61 60 59 57 57 56 55 53 51 49 47 46 46 46 46 45 44 43 42 41 40 39 38 37 37 36 35 34 34 33 32 32 32 31 31 30 29 29 28 28 27 27 26 26 26 26 26 25
102 102 103 102 102 101 100 99 97 96 94 93 93 92 91 89 88 87 85 83 81 79 78 76 75 73 72 71 70 68 67 66 65 64 64 63 62 61 59 58 57 56 54 54 53 51 50 48 46 45 44 44 44 43 42 42 41 40 39 38 37 36 35 34 33 33 32 32 31 31 31 30 30 29 28 28 27 27 26 26 26 25 25 25 25 24
102 102 102 101 100 99 97 96 95 94 92 92 91 90 89 87 86 84 82 81 79 78 76 75 73 72 71 70 69 68 66 65 64 63 62 61 60 59 58 57 55 54 52 51 50 49 48 46 44 43 43 42 42 42 41 40 39 38 37 36 35 34 34 33 32 32 31 31 30 30 30 29 29 28 28 27 26 26 25 25 25 24 24 24 23 23
101 101 100 99 98 97 95 94 93 92 91 90 89 88 86 85 83 82 80 79 77 76 75 74 72 71 70 69 68 66 65 64 63 62 61 60 59 57 56 55 53 52 51 49 48 47 46 45 43 42 41 41 40 40 39 39 38 37 36 35 34 33 32 32 31 30 30 30 29 29 29 28 28 27 27 26 25 25 24 24 24 23 23 23 22 21
101 100 99 97 96 94 93 92 91 90 89 88 87 86 84 82 81 79 78 77 75 74 73 72 71 70 69 67 66 65 64 63 61 60 59 58 57 56 54 53 52 50 49 47 46 45 44 43 42 41 40 39 39 38 38 37 36 35 34 33 32 32 31 30 30 29 29 29 28 28 28 27 27 26 26 25 25 24 24 23 23 22 22 21 21 20
99 98 96 95 94 92 91 90 90 89 88 86 85 83 82 80 78 77 76 75 73 72 72 71 70 69 67 66 65 63 62 61 60 58 57 56 55 54 53 51 50 48 47 46 44 43 42 42 41 40 39 38 38 37 36 36 35 34 33 32 31 30 30 29 29 28 28 28 27 27 27 26 26 25 25 24 24 23 23 22 22 21 21 20 20 20
98 96 94 93 92 91 90 89 88 87 86 84 83 81 79 78 76 75 74 73 72 71 70 69 68 67 66 65 63 62 60 59 58 56 55 54 53 52 51 49 48 46 45 44 43 42 41 40 39 38 38 37 36 36 35 35 34 33 32 31 30 29 29 28 28 27 27 27 26 26 26 25 25 25 24 24 23 22 22 21 20 20 20 19 19 19
96 94 93 92 91 90 89 88 87 86 84 82 81 79 77 76 75 73 72 71 70 69 68 67 66 65 64 63 61 60 59 57 56 54 53 52 51 50 49 47 46 44 43 42 41 40 39 39 38 37 37 36 35 35 34 34 33 32 31 30 29 28 27 27 27 26 26 26 25 25 25 25 24 24 23 23 22 22 21 20 19 19 18 18 18 18
94 93 92 90 90 89 88 87 85 84 82 80 79 77 75 74 73 72 71 70 69 67 66 65 64 63 62 60 59 58 57 55 54 53 51 50 49 48 46 45 44 43 41 40 40 39 38 37 37 36 35 35 34 33 33 33 32 31 30 29 28 27 27 26 25 25 25 24 24 24 24 24 24 23 23 23 22 21 20 19 18 17 17 17 17 17
93 92 91 89 88 87 86 85 84 82 80 79 77 75 74 73 72 70 69 68 67 66 65 64 62 61 60 59 57 56 55 53 52 51 50 48 47 46 45 43 42 41 40 39 38 37 37 36 36 35 34 34 33 32 32 31 31 30 29 29 28 27 26 25 24 24 24 23 23 23 23 23 23 23 22 22 21 20 19 18 17 16 16 16 16 16
92 91 90 89 87 86 85 84 82 80 78 77 75 74 73 71 70 69 68 67 66 64 63 62 61 59 58 57 55 54 52 51 50 49 48 46 45 44 43 42 41 40 39 38 37 36 36 35 34 34 33 32 32 31 31 30 30 29 29 28 27 26 25 25 24 23 23 22 22 22 22 22 22 22 22 21 21 20 19 17 16 16 15 15 15 15
91 90 89 88 86 85 84 82 80 79 77 75 74 72 71 70 69 68 66 65 64 63 62 60 59 58 56 55 53 52 50 49 48 47 46 45 44 42 41 40 39 38 37 37 36 35 34 34 33 32 31 31 30 30 29 29 28 28 28 27 27 26 25 24 23 23 22 22 21 21 21 21 21 21 21 21 20 19 18 17 16 15 15 15 14 14
90 89 88 87 85 83 82 80 79 77 75 74 73 71 70 69 68 66 65 64 62 61 60 59 57 56 54 53 51 50 48 47 46 45 44 43 42 41 40 39 38 37 36 36 35 34 33 32 31 31 30 29 29 28 28 28 27 27 27 26 26 26 25 24 24 23 22 21 21 20 20 20 20 20 19 19 18 18 17 16 15 15 15 14 14 14
90 88 87 85 84 82 80 79 77 75 74 72 71 70 69 68 67 65 64 63 61 60 58 57 55 54 52 51 49 48 47 45 44 43 42 41 40 39 39 38 37 36 35 34 34 33 32 31 30 29 29 28 28 27 27 26 26 26 26 25 25 25 25 24 24 23 22 21 20 20 19 19 18 18 18 17 17 16 16 15 15 15 14 14 14 13
88 87 85 84 82 80 79 77 75 74 72 71 70 69 67 66 65 64 63 61 60 58 57 55 54 52 51 49 48 46 45 43 42 41 41 40 39 38 37 37 36 35 34 33 32 31 31 30 29 28 27 27 26 26 25 25 25 25 25 24 24 24 24 24 24 23 22 21 20 19 19 18 17 17 16 16 16 16 15 15 15 15 14 14 13 13
87 85 84 82 80 78 77 75 74 72 71 70 69 67 66 65 64 62 61 60 58 57 55 54 52 51 49 48 46 45 43 42 41 40 39 38 38 37 36 35 35 34 33 32 31 30 29 29 28 27 26 26 25 25 24 24 24 24 24 24 24 24 24 24 23 23 22 21 20 19 18 17 17 16 16 16 16 16 15 15 15 14 14 13 13 12
86 84 82 80 78 77 75 74 72 71 69 68 67 66 65 63 62 61 59 58 57 55 54 52 51 49 48 46 44 43 42 40 39 38 38 37 37 36 35 34 33 32 32 31 30 29 28 27 27 26 25 25 24 24 23 23 23 23 23 23 23 23 23 23 23 22 21 21 20 19 18 17 17 16 16 16 16 16 15 15 14 14 13 12 12 11
84 82 80 78 76 75 73 72 71 69 68 67 66 64 63 62 61 59 58 56 55 53 52 50 49 47 46 44 43 41 40 39 38 37 36 36 35 35 34 33 32 31 31 30 29 28 27 26 26 25 25 24 24 23 23 23 23 22 23 23 22 22 22 22 21 21 20 20 19 18 18 17 17 17 16 16 16 15 15 15 14 13 13 12 11 11
82 80 78 76 75 73 72 70 69 68 67 65 64 63 62 60 59 57 56 55 53 52 50 49 47 46 44 43 41 40 39 38 37 36 35 34 34 33 33 32 31 30 29 29 28 27 27 26 25 24 24 23 23 23 23 23 22 22 22 22 22 21 21 20 20 19 19 19 18 18 18 17 17 17 16 16 16 15 15 14 13 13 12 11 11 10
81 79 76 75 73 72 70 69 68 66 65 64 63 61 60 58 57 56 54 53 51 50 48 47 46 44 43 41 40 39 37 36 36 35 34 33 33 32 31 31 30 29 29 28 27 27 26 25 25 24 23 23 23 23 23 23 22 22 22 21 21 20 19 19 19 19 18 18 18 18 17 17 17 17 16 16 15 15 14 14 13 12 11 11 10 10
78 76 74 73 71 70 69 67 66 65 63 62 61 60 58 57 55 54 52 51 50 48 47 45 44 42 41 40 39 37 36 35 35 34 33 32 31 31 30 29 29 28 28 27 26 26 26 25 24 24 23 23 23 23 23 22 22 21 21 20 20 19 18 18 18 18 18 18 17 17 17 17 16 16 16 15 15 14 14 13 12 11 11 10 10 9
76 74 73 71 70 68 67 66 64 63 62 61 59 58 56 55 53 52 51 49 48 47 45 44 42 41 39 38 37 36 35 35 34 33 32 31 30 29 29 28 27 27 26 26 25 25 25 24 24 24 23 23 23 22 22 22 21 20 20 19 18 18 18 18 18 17 17 17 17 17 16 16 16 15 15 15 14 14 13 12 12 11 10 10 9 9
74 72 71 69 68 67 65 64 63 62 60 59 57 56 54 53 52 50 49 48 46 45 43 42 41 39 38 37 36 35 34 34 33 32 31 30 29 29 28 27 27 26 25 25 25 24 24 24 23 23 23 23 22 22 21 21 20 20 19 18 18 18 17 17 17 17 17 16 16 16 16 15 15 15 14 14 13 13 12 11 11 10 10 9 9 9
Wind_Direction
309 309 309 309 308 308 308 308 308 308 308 308 307 308 308 308 308 308 308 308 308 308 308 307 307 307 307 307 307 307 307 306 306 305 304 304 303 303 303 302 301 301 301 300 300 299 298 298 297 297 297 296 296 296 295 295 295 295 295 294 294 293 293 292 291 290 289 288 288 287 287 286 286 286 285 285 284 283 282 281 281 280 279 279 278 278
309 309 309 309 309 308 308 308 308 308 308 308 308 308 308 308 308 308 308 308 308 308 308 308 308 308 308 308 308 307 307 306 306 305 305 304 304 303 303 302 302 302 301 301 300 300 299 299 298 298 297 297 297 297 296 296 296 296 296 295 295 294 293 293 292 291 290 289 288 288 288 287 287 287 286 285 284 283 283 282 281 280 280 279 279 278
309 309 309 309 309 309 308 308 308 308 308 308 308 308 308 308 308 308 308 308 308 308 308 308 308 308 308 308 308 308 308 307 307 306 306 305 305 304 304 304 303 303 302 302 301 301 300 300 299 299 299 298 298 298 298 297 297 297 297 296 296 295 294 293 292 291 290 289 289 289 289 288 288 287 286 285 285 284 283 283 282 281 280 280 279 278
309 309 309 309 309 309 309 308 308 308 308 308 308 308 308 308 308 308 308 309 309 309 309 309 309 309 309 309 309 309 308 308 308 307 307 307 306 306 305 305 304 304 303 303 302 302 301 301 300 300 300 299 299 299 299 299 298 298 298 297 296 295 294 293 292 291 291 290 290 290 290 289 289 288 287 286 286 285 284 283 282 282 281 280 280 279
310 309 309 309 309 309 308 308 308 308 308 308 308 308 308 308 308 309 309 309 309 309 310 310 310 310 310 309 309 309 309 308 308 308 308 307 307 307 306 306 305 305 304 304 303 303 302 302 301 301 301 300 300 300 300 299 299 299 298 298 297 296 295 294 293 292 292 292 292 291 291 290 289 288 288 287 286 285 285 284 283 282 281 281 280 280
310 309 309 309 309 308 308 308 308 308 308 308 308 308 309 309 309 309 309 310 310 310 310 310 310 310 310 309 309 309 309 308 308 308 308 307 307 307 306 306 305 305 304 304 303 303 302 302 302 301 301 301 301 301 300 300 300 300 299 298 298 296 295 294 294 293 293 293 293 292 292 291 290 289 289 288 287 286 285 284 284 283 282 282 281 281
310 309 309 309 309 308 308 308 308 308 308 309 309 309 309 309 309 310 310 310 310 310 310 310 310 310 310 309 309 309 309 308 308 307 307 307 306 306 306 305 305 304 304 304 303 303 302 302 302 302 301 301 301 301 301 301 301 300 300 299 298 297 296 295 294 294 294 294 294 293 293 292 291 290 289 288 288 287 286 285 284 284 283 283 282 281
309 309 309 309 308 308 308 308 308 309 309 309 309 309 309 310 310 310 310 310 311 311 310 310 310 310 310 310 309 309 309 308 308 307 307 306 306 306 305 305 305 304 304 303 303 303 302 302 302 302 302 302 302 302 302 302 302 301 300 299 298 297 296 295 295 295 295 295 295 294 294 293 292 291 290 289 288 287 286 286 285 284 284 283 282 281
309 309 309 309 309 308 309 309 309 309 309 309 310 310 310 310 311 311 311 311 311 311 311 311 311 311 310 310 309 309 308 308 308 307 307 306 306 306 305 305 305 304 304 304 303 303 302 302 302 302 302 302 302 302 303 302 302 301 300 299 298 297 296 296 296 296 296 296 295 295 294 293 292 291 290 289 289 288 287 287 286 285 284 283 282 282
309 309 309 309 309 309 309 309 309 310 310 310 310 310 311 311 311 312 312 312 312 311 311 311 311 311 310 310 309 309 308 308 308 307 307 307 306 306 306 306 305 305 304 304 303 303 303 303 303 303 303 303 303 303 303 303 302 301 300 299 298 297 296 296 296 296 296 296 296 295 295 294 293 291 291 290 289 289 288 287 286 286 285 284 283 282
309 309 309 309 309 309 309 309 310 310 310 310 311 311 311 312 312 312 312 312 312 312 312 311 311 311 311 310 310 309 309 308 308 308 307 307 307 307 306 306 306 305 305 304 304 303 303 303 303 303 303 303 303 303 303 303 302 301 300 298 297 297 296 296 297 297 297 297 296 296 295 293 293 292 291 290 290 289 288 288 287 286 285 284 283 282
309 309 309 309 310 310 310 310 310 311 311 311 312 312 312 313 313 313 313 313 312 312 312 312 311 311 311 310 310 309 309 309 308 308 308 308 307 307 307 306 306 305 305 304 304 303 303 303 303 303 303 303 303 303 303 302 302 300 299 298 297 296 296 297 297 298 298 297 296 295 294 293 292 292 291 290 290 289 289 288 287 286 285 284 283 282
310 310 310 310 310 310 311 311 311 311 312 312 312 313 313 313 313 313 313 313 312 312 312 312 311 311 311 310 310 310 309 309 309 308 308 308 307 307 306 306 305 305 304 304 303 303 303 303 303 303 303 303 303 303 303 302 301 300 299 297 297 296 297 297 298 298 298 297 296 295 294 293 292 292 291 291 290 290 289 288 287 287 286 285 284 283
310 310 310 311 311 311 311 312 312 312 313 313 313 313 313 313 313 313 313 313 313 312 312 312 312 311 311 310 310 310 309 309 309 308 308 308 307 306 306 305 305 304 304 303 303 303 303 303 303 303 303 303 303 303 303 302 301 299 298 297 297 297 297 298 299 299 298 297 296 295 294 293 292 292 291 291 290 290 289 288 288 287 286 285 284 283
311 311 311 311 312 312 312 312 313 313 313 313 313 314 313 313 313 313 313 313 313 313 312 312 312 311 311 310 310 309 309 309 308 308 308 307 306 306 305 304 304 304 303 303 302 302 302 303 303 303 303 303 303 303 303 302 300 299 298 297 297 297 298 299 299 299 298 297 296 295 294 293 292 292 291 291 290 290 289 288 288 287 286 285 284 283
311 312 312 312 312 313 313 313 313 313 313 314 314 314 314 314 314 314 314 313 313 313 312 312 311 311 310 310 309 309 309 308 308 307 307 306 305 305 304 304 303 303 303 302 302 302 302 303 303 303 303 303 303 303 302 301 300 299 297 297 297 298 299 300 300 299 298 297 296 295 294 293 293 292 291 291 290 290 289 289 288 287 286 285 284 283
312 312 313 313 313 313 313 313 314 314 314 314 314 314 314 314 314 314 314 313 313 313 312 312 311 310 310 309 309 308 308 308 307 306 306 305 304 304 303 303 303 303 303 302 302 302 302 303 303 303 303 303 303 303 302 301 299 298 297 297 298 299 299 300 300 298 297 296 295 295 294 293 293 292 292 291 291 290 290 289 288 287 286 285 284 283
313 313 313 313 314 314 314 314 314 314 314 314 314 314 314 314 314 314 314 313 313 312 312 311 311 310 310 309 309 308 308 307 306 306 305 304 304 303 303 303 303 303 303 302 302 302 302 303 303 303 304 304 303 303 302 300 299 298 297 297 298 299 300 300 299 298 297 296 296 295 294 294 293 292 292 291 291 290 289 288 288 286 286 285 284 283
313 314 314 314 314 314 314 314 314 314 315 315 314 314 314 314 314 314 313 313 312 312 311 311 310 310 309 309 308 308 308 307 306 305 305 304 303 303 303 303 303 303 303 303 302 302 303 303 303 304 304 304 303 302 301 300 299 298 298 298 299 300 300 299 299 298 297 296 296 295 295 294 293 292 292 291 291 290 289 288 287 286 285 285 284 283
314 314 314 314 314 315 315 315 315 315 315 315 315 314 314 314 314 313 313 312 312 311 311 310 310 310 309 309 308 308 307 307 306 305 304 304 304 303 303 303 303 303 303 303 303 303 303 303 303 304 304 304 303 302 301 299 298 298 298 299 299 300 300 299 298 298 297 297 296 295 295 294 293 293 292 291 291 290 289 288 287 286 285 284 283 283
314 314 315 315 315 315 315 315 315 315 315 315 314 314 314 314 313 313 312 312 311 311 310 310 310 310 309 309 308 308 307 307 306 305 305 304 304 304 304 304 304 304 304 303 303 303 303 303 304 304 304 304 303 301 300 299 298 298 299 299 300 300 299 299 298 298 298 297 296 295 295 294 293 293 292 292 291 290 289 288 287 286 285 284 283 282
315 315 315 315 315 315 315 315 315 315 315 315 314 314 314 313 313 313 312 312 311 311 310 310 310 310 309 309 308 308 307 307 306 306 305 305 305 305 305 305 305 305 304 304 304 303 303 303 304 304 304 303 302 301 300 299 298 299 299 300 300 299 299 299 298 298 298 298 296 295 294 294 293 293 292 291 291 289 288 287 286 285 284 283 283 281
315 316 316 316 316 316 316 316 315 315 315 315 314 314 313 313 313 312 312 311 311 311 310 310 310 309 309 308 308 308 307 307 307 306 306 306 306 306 306 306 306 305 305 305 304 304 304 304 304 304 304 303 302 301 300 299 299 299 299 300 300 299 299 299 299 299 298 298 297 295 294 294 293 293 292 291 290 289 288 287 286 285 284 283 282 281
316 316 316 316 316 316 316 316 315 315 315 314 314 313 313 313 312 312 311 311 311 311 310 310 310 309 309 308 308 308 308 308 307 307 307 307 307 307 307 307 306 306 306 305 305 304 304 304 305 305 304 303 302 301 300 299 299 299 300 300 300 299 299 300 300 300 299 298 296 295 295 294 293 293 292 291 290 289 288 287 285 284 284 282 281 281
317 317 317 317 316 316 316 316 315 315 314 314 314 313 313 313 312 312 311 311 311 311 311 310 310 310 309 309 308 308 308 308 308 308 308 308 308 308 307 307 307 306 306 305 305 305 305 305 305 305 304 303 302 301 300 299 300 300 300 300 300 300 300 300 300 300 299 298 296 296 295 294 293 292 291 291 289 288 287 286 285 284 283 282 281 281
317 317 317 316 316 316 316 315 315 314 314 314 313 313 313 313 312 312 312 312 312 312 311 311 310 310 309 309 309 309 309 309 309 309 309 308 308 308 308 308 307 307 306 306 306 305 306 306 306 306 305 303 302 301 300 300 300 300 301 300 300 301 301 301 300 300 299 298 297 296 295 294 293 292 291 290 289 288 287 286 285 284 283 283 282 282
317 317 317 316 316 316 315 315 315 314 314 314 314 313 313 313 313 312 312 312 312 312 312 311 311 310 310 310 310 310 310 310 310 310 309 309 309 309 308 308 308 307 307 306 306 306 307 307 307 306 305 304 302 301 301 301 301 301 301 301 301 301 301 301 300 300 299 298 297 296 295 294 293 292 290 289 289 288 287 286 285 284 284 283 283 283
317 317 317 316 316 316 315 315 315 314 314 314 314 314 314 314 313 313 313 313 313 313 312 312 311 311 311 311 311 311 311 311 311 310 310 309 309 309 309 309 308 308 308 307 307 307 308 308 308 307 305 304 303 302 302 302 302 302 302 302 302 302 302 301 300 299 299 298 296 295 294 293 292 291 290 290 289 288 287 286 286 285 284 284 284 284
317 317 316 316 316 316 315 315 315 315 315 315 315 314 314 314 314 314 314 314 314 313 313 312 312 312 312 312 312 312 312 312 312 311 311 310 310 310 310 309 309 309 309 308 308 308 309 309 309 307 306 305 304 303 303 303 303 303 303 303 303 302 302 301 300 299 298 297 296 295 294 293 292 291 290 290 289 288 287 287 286 286 285 285 285 285
317 317 316 316 316 316 316 316 316 315 315 315 315 315 315 315 315 315 314 314 314 314 313 313 313 313 313 313 313 313 313 313 313 312 311 311 311 311 311 310 310 310 310 310 310 309 310 310 309 308 307 306 305 304 304 304 304 304 304 304 303 302 302 301 300 299 298 297 296 295 294 293 292 291 291 290 289 288 288 287 287 287 286 286 286 286
317 317 317 316 316 316 316 316 316 316 316 316 316 316 316 315 315 315 315 315 315 314 314 314 314 314 314 314 314 314 314 314 313 313 312 312 312 312 311 311 311 311 311 311 311 311 310 310 310 309 307 307 306 306 305 305 305 304 304 304 304 303 302 301 301 299 298 297 296 295 294 293 292 292 291 290 290 289 289 288 288 287 287 287 286 286
317 317 317 317 317 317 317 317 317 317 317 316 316 316 316 316 316 316 316 315 315 315 315 315 315 315 315 315 315 315 315 315 314 314 313 313 312 312 312 312 312 312 312 312 312 312 311 311 311 310 309 308 307 307 306 306 305 305 305 304 304 303 302 301 300 299 298 297 296 294 294 293 292 292 291 291 290 290 289 289 288 287 287 287 287 286
318 317 317 317 317 318 318 318 317 317 317 317 317 317 317 317 316 316 316 316 316 315 315 315 315 316 316 316 316 315 315 315 314 314 314 313 313 313 312 312 312 313 313 313 313 312 312 312 311 311 310 309 308 307 307 306 306 305 305 305 304 303 302 301 300 299 297 296 295 294 293 293 292 292 291 291 291 290 290 289 288 288 287 287 286 285
318 318 318 318 318 318 318 318 318 318 318 318 317 317 317 317 317 317 316 316 316 316 316 316 316 316 316 316 316 316 315 315 315 314 314 314 313 313 313 313 313 314 314 314 314 313 313 312 312 311 310 310 309 308 307 307 306 306 305 305 304 304 302 301 300 299 297 296 295 294 293 293 292 292 291 291 290 290 289 289 289 288 288 287 286 285
319 319 319 319 319 319 319 319 319 319 318 318 318 318 318 317 317 317 317 317 316 316 316 316 316 316 316 316 316 316 316 315 315 315 314 314 314 314 314 314 314 314 315 315 314 314 313 313 312 311 311 310 309 308 307 307 306 306 305 305 304 303 302 301 300 298 297 296 295 294 293 293 292 292 291 290 290 290 289 289 289 288 288 287 286 285
319 320 320 320 320 320 320 320 320 319 319 319 319 318 318 318 318 317 317 317 317 317 317 317 317 317 316 316 316 316 316 316 315 315 315 314 314 314 314 315 315 315 315 315 315 314 314 313 312 312 311 310 309 309 308 307 306 306 305 305 304 303 302 300 299 298 297 296 295 295 294 293 292 291 291 290 290 290 289 289 289 289 288 288 287 287
320 320 321 321 321 321 321 320 320 320 320 319 319 319 319 318 318 318 318 317 317 317 317 317 317 317 317 317 316 316 316 316 316 315 315 315 315 315 315 315 315 316 316 315 315 315 314 313 312 312 311 311 310 309 308 307 306 306 305 304 303 302 301 300 299 298 297 296 295 294 294 293 292 291 291 290 291 291 291 292 292 292 291 290 289 289
321 321 321 321 321 321 321 321 321 320 320 320 320 319 319 319 318 318 318 318 318 318 318 318 317 317 317 317 317 317 317 316 316 316 316 316 316 316 316 316 316 316 316 316 315 314 314 313 313 312 311 311 310 309 308 307 306 306 305 305 303 302 301 300 299 298 297 296 295 294 293 292 292 292 292 292 293 294 295 296 297 296 295 293 291 290
322 322 322 322 322 322 322 322 321 321 321 320 320 320 319 319 319 318 318 318 319 318 318 318 318 318 318 317 317 317 317 317 316 316 316 316 316 316 316 316 317 316 316 316 315 315 314 314 313 312 312 311 310 309 308 307 307 306 305 305 304 303 301 300 299 298 296 295 294 293 293 292 292 293 293 295 297 299 300 301 301 300 297 294 292 289
323 323 323 323 323 323 322 322 321 321 321 321 320 320 320 319 319 319 319 319 319 319 318 318 318 318 318 318 318 318 318 317 317 317 317 317 317 317 317 317 317 317 316 316 316 315 315 314 313 313 312 311 310 310 309 308 307 306 305 305 304 303 302 301 299 298 296 295 294 293 293 293 294 295 296 299 301 303 304 305 303 299 296 292 289 287
323 323 323 323 323 323 323 322 322 321 321 321 321 320 320 320 320 319 320 319 319 319 319 319 319 319 318 318 318 318 318 318 318 318 317 317 317 317 317 317 317 317 317 316 316 316 315 315 314 313 312 312 311 310 309 308 307 306 306 305 304 303 302 301 300 299 298 297 296 296 296 297 298 299 301 303 304 305 304 302 299 295 292 289 287 286
324 324 324 324 324 323 323 322 322 322 322 321 321 321 320 320 320 320 320 320 320 319 319 319 319 319 319 319 319 319 319 319 318 318 318 318 318 318 318 318 318 317 317 317 317 316 316 315 314 314 313 312 311 310 309 308 307 307 306 305 304 303 303 302 301 301 301 301 302 302 302 303 304 304 304 304 303 301 299 296 293 290 289 288 288 288
324 324 324 324 324 324 323 323 322 322 322 321 321 321 321 320 320 320 320 320 320 320 320 320 320 320 320 320 320 320 320 320 319 319 318 318 318 318 318 318 318 318 318 317 317 316 316 316 315 314 313 312 311 310 309 308 307 306 305 305 304 303 303 302 303 304 305 307 308 309 309 308 308 306 304 301 298 295 293 291 290 289 289 289 290 290
325 325 325 325 324 324 323 323 322 322 322 322 321 321 321 321 321 321 321 321 321 321 321 321 321 320 320 320 320 320 320 320 320 320 319 319 319 319 319 319 319 319 318 318 317 317 317 316 315 315 314 313 312 311 310 309 308 306 305 305 304 303 303 304 306 308 310 311 312 312 311 309 306 303 300 296 293 291 290 289 289 290 290 291 292 292
325 325 325 325 324 324 323 323 323 322 322 322 322 321 321 322 321 321 321 321 321 321 321 321 321 321 321 321 321 321 321 321 320 320 319 319 319 319 319 319 319 319 319 318 318 317 317 317 316 315 314 314 312 311 310 309 308 307 305 305 305 306 306 308 310 312 312 313 312 311 308 305 302 298 295 293 291 291 291 291 291 292 292 293 293 293
326 326 325 325 325 324 323 323 323 322 322 322 322 322 322 322 322 322 321 322 322 322 322 322 322 322 322 322 322 322 321 321 321 320 320 320 320 320 320 320 320 320 319 319 319 318 318 317 317 316 315 314 313 312 311 310 309 307 307 307 308 309 310 311 312 312 311 310 308 305 303 300 298 296 294 293 293 293 293 293 293 294 294 295 295 294
326 326 326 325 325 324 324 323 323 323 322 322 322 322 322 322 322 322 322 322 322 322 322 322 322 322 322 322 322 322 322 321 321 321 321 321 321 321 321 320 320 320 320 320 319 319 318 318 317 317 316 315 314 312 311 311 310 309 309 310 311 312 312 312 311 309 307 304 302 301 299 298 296 296 295 294 294 295 294 295 295 296 296 295 295 294
326 326 326 325 325 324 324 323 323 323 323 323 323 323 323 323 323 323 323 323 323 323 323 323 323 323 323 323 322 322 322 321 322 322 322 322 322 322 321 321 321 321 321 320 320 319 319 319 318 317 316 315 314 313 313 312 312 312 313 313 314 313 312 310 307 304 302 300 299 298 297 297 296 296 296 296 296 295 296 296 296 297 297 296 294 292
327 326 326 325 325 324 324 323 323 323 323 323 323 323 323 323 323 323 323 323 323 323 323 323 323 323 323 323 323 322 322 322 322 323 323 323 323 322 322 322 321 321 321 321 321 320 320 319 319 318 317 316 316 315 314 314 315 315 316 316 314 312 310 306 303 301 299 298 298 297 296 296 296 296 296 296 297 298 298 298 299 298 298 295 293 291
327 326 326 325 325 324 324 324 324 323 323 324 324 324 324 324 324 324 324 324 324 324 324 324 324 324 324 323 323 323 323 323 323 323 324 323 323 323 322 322 322 322 322 321 321 321 320 320 320 319 318 318 317 317 317 317 317 318 317 316 312 309 306 303 301 300 299 299 298 298 297 297 297 297 298 299 299 301 301 301 301 299 297 295 293 289
327 326 326 326 325 324 324 324 324 324 324 324 324 324 325 325 325 325 325 324 324 325 325 325 325 324 324 323 323 323 323 324 324 324 324 324 324 323 323 323 322 322 322 322 321 321 321 321 320 320 320 319 319 319 319 319 319 318 317 313 310 307 305 302 301 301 300 300 299 299 299 299 299 300 301 302 303 304 305 304 303 301 299 295 292 289
Height
10422 10418 10414 10411 10407 10404 10399 10396 10393 10389 10385 10381 10378 10375 10371 10367 10364 10360 10356 10352 10349 10344 10341 10337 10333 10329 10326 10321 10317 10313 10309 10304 10301 10297 10293 10290 10287 10283 10279 10276 10272 10268 10264 10260 10256 10252 10248 10244 10241 10237 10233 10230 10227 10224 10221 10217 10214 10212 10209 10206 10202 10199 10195 10191 10187 10184 10180 10177 10174 10171 10170 10168 10167 10165 10163 10161 10159 10157 10156 10154 10152 10149 10148 10146 10145 10144
10416 10412 10409 10406 10402 10397 10393 10389 10386 10383 10379 10374 10371 10367 10364 10360 10356 10352 10349 10344 10341 10337 10333 10329 10325 10321 10317 10313 10309 10304 10299 10294 10290 10286 10282 10279 10276 10272 10269 10266 10261 10257 10253 10249 10245 10241 10237 10233 10229 10226 10222 10219 10216 10214 10211 10207 10205 10202 10199 10195 10192 10188 10184 10181 10177 10173 10169 10167 10164 10162 10161 10160 10158 10156 10154 10152 10149 10147 10146 10144 10142 10141 10139 10137 10136 10136
10409 10406 10402 10399 10396 10391 10387 10382 10379 10376 10372 10369 10364 10361 10357 10353 10349 10345 10341 10337 10333 10329 10325 10321 10317 10312 10308 10304 10299 10294 10289 10284 10279 10274 10270 10266 10263 10260 10257 10253 10249 10246 10242 10237 10233 10229 10226 10222 10218 10215 10212 10209 10206 10203 10200 10197 10194 10191 10188 10185 10181 10177 10174 10170 10166 10162 10159 10157 10156 10154 10153 10151 10149 10147 10144 10142 10141 10139 10137 10136 10134 10132 10131 10129 10129 10127
10404 10399 10395 10392 10388 10384 10381 10377 10372 10369 10366 10362 10359 10355 10351 10347 10343 10339 10335 10331 10326 10321 10317 10312 10309 10304 10299 10295 10290 10286 10280 10275 10269 10264 10259 10255 10251 10247 10244 10241 10237 10234 10230 10226 10222 10217 10214 10210 10207 10204 10201 10198 10196 10192 10190 10187 10184 10182 10178 10175 10171 10167 10163 10159 10156 10152 10151 10149 10147 10146 10145 10142 10141 10138 10136 10134 10132 10131 10129 10127 10126 10124 10122 10121 10121 10119
10397 10393 10389 10386 10382 10377 10374 10370 10366 10362 10359 10356 10352 10349 10345 10341 10336 10332 10328 10324 10319 10315 10310 10306 10301 10297 10292 10287 10282 10277 10272 10267 10262 10257 10252 10246 10242 10237 10234 10230 10226 10222 10219 10214 10211 10207 10203 10199 10196 10193 10191 10188 10185 10182 10180 10177 10175 10172 10169 10165 10161 10157 10153 10149 10146 10144 10142 10141 10140 10138 10136 10134 10132 10130 10127 10126 10124 10122 10121 10120 10118 10116 10115 10114 10113 10112
10391 10387 10384 10379 10376 10371 10367 10363 10359 10356 10352 10349 10346 10342 10339 10334 10330 10326 10321 10317 10313 10308 10303 10299 10294 10290 10286 10280 10275 10271 10266 10261 10256 10251 10246 10240 10235 10230 10226 10221 10217 10213 10209 10205 10201 10197 10193 10190 10187 10184 10181 10178 10176 10173 10171 10168 10166 10162 10159 10155 10151 10147 10143 10140 10137 10136 10134 10133 10132 10130 10128 10126 10124 10122 10120 10118 10116 10115 10114 10112 10111 10109 10108 10107 10106 10105
10384 10381 10377 10374 10369 10365 10361 10357 10353 10349 10346 10342 10338 10334 10331 10327 10324 10320 10315 10311 10306 10301 10296 10291 10287 10282 10278 10273 10267 10262 10257 10253 10249 10244 10239 10234 10229 10224 10219 10214 10210 10205 10201 10196 10192 10188 10184 10181 10177 10174 10172 10169 10167 10164 10162 10159 10156 10153 10149 10146 10142 10138 10134 10131 10129 10128 10127 10126 10124 10122 10121 10119 10116 10114 10112 10111 10109 10107 10106 10105 10104 10102 10101 10101 10099 10099
10378 10374 10370 10367 10362 10357 10353 10349 10346 10343 10339 10335 10331 10327 10322 10319 10315 10312 10309 10304 10299 10294 10289 10283 10278 10274 10270 10266 10260 10254 10249 10244 10240 10236 10231 10226 10221 10217 10212 10207 10202 10197 10192 10188 10184 10179 10176 10172 10169 10166 10163 10161 10158 10156 10153 10151 10147 10144 10141 10137 10132 10129 10126 10124 10122 10121 10120 10119 10117 10116 10113 10111 10109 10107 10105 10103 10102 10101 10099 10098 10097 10096 10095 10094 10093 10092
10374 10369 10364 10359 10356 10352 10346 10341 10337 10335 10332 10328 10324 10320 10316 10311 10306 10302 10299 10296 10291 10286 10281 10276 10271 10265 10260 10256 10252 10247 10242 10236 10231 10226 10222 10217 10212 10207 10202 10198 10194 10189 10184 10179 10175 10171 10167 10164 10161 10158 10155 10152 10150 10147 10145 10142 10139 10136 10132 10128 10124 10121 10118 10116 10116 10114 10114 10112 10111 10109 10106 10104 10102 10100 10098 10097 10095 10094 10093 10092 10091 10090 10089 10088 10087 10086
10367 10363 10358 10353 10349 10345 10341 10336 10331 10327 10324 10320 10316 10312 10309 10305 10300 10294 10289 10285 10281 10277 10273 10269 10264 10258 10252 10246 10241 10237 10233 10228 10222 10217 10213 10208 10203 10198 10193 10189 10184 10179 10174 10169 10165 10161 10158 10155 10152 10150 10147 10145 10142 10140 10137 10135 10132 10128 10124 10120 10116 10114 10111 10110 10109 10108 10107 10106 10104 10102 10100 10097 10096 10094 10092 10091 10089 10088 10087 10086 10085 10084 10083 10082 10081 10081
10361 10356 10352 10347 10342 10337 10334 10330 10325 10321 10317 10312 10307 10303 10300 10297 10294 10289 10283 10277 10272 10268 10264 10259 10255 10251 10246 10238 10232 10226 10222 10218 10213 10208 10203 10199 10194 10189 10184 10179 10174 10170 10165 10160 10156 10152 10148 10146 10144 10141 10139 10137 10135 10133 10131 10128 10125 10121 10117 10113 10109 10106 10104 10104 10103 10103 10102 10100 10098 10096 10094 10091 10089 10087 10086 10084 10083 10082 10081 10080 10079 10078 10077 10076 10076 10075
10354 10350 10345 10340 10336 10331 10326 10322 10317 10314 10309 10306 10301 10295 10290 10287 10284 10281 10276 10271 10266 10261 10256 10251 10246 10241 10237 10231 10224 10217 10212 10208 10204 10199 10194 10189 10184 10180 10176 10171 10166 10162 10157 10152 10147 10143 10140 10137 10135 10134 10132 10130 10128 10126 10124 10121 10118 10114 10110 10106 10102 10100 10099 10098 10098 10097 10096 10094 10092 10090 10087 10086 10083 10081 10080 10079 10077 10077 10076 10074 10074 10072 10072 10071 10070 10069
10347 10343 10339 10334 10329 10324 10319 10315 10310 10305 10301 10297 10293 10288 10283 10279 10275 10271 10267 10262 10257 10254 10249 10244 10237 10231 10227 10222 10216 10210 10204 10199 10195 10191 10186 10181 10177 10172 10167 10162 10158 10154 10150 10145 10140 10136 10132 10130 10128 10126 10124 10122 10121 10119 10117 10115 10111 10107 10102 10099 10096 10094 10092 10092 10092 10092 10091 10089 10087 10084 10082 10079 10077 10076 10075 10074 10072 10071 10071 10069 10069 10067 10067 10066 10065 10064
10341 10336 10331 10327 10322 10317 10312 10307 10302 10297 10293 10289 10286 10281 10276 10271 10267 10263 10259 10253 10248 10244 10241 10236 10229 10224 10219 10214 10209 10202 10197 10191 10187 10183 10179 10174 10169 10165 10161 10156 10151 10147 10143 10138 10133 10129 10126 10124 10121 10119 10117 10116 10114 10112 10111 10108 10104 10100 10096 10092 10089 10087 10087 10087 10087 10086 10085 10083 10081 10078 10076 10074 10072 10071 10069 10069 10067 10067 10066 10065 10064 10062 10062 10061 10060 10059
10334 10329 10324 10319 10314 10309 10305 10301 10296 10290 10285 10281 10277 10273 10269 10264 10259 10254 10250 10245 10240 10235 10231 10226 10221 10216 10211 10206 10202 10197 10191 10184 10179 10175 10172 10167 10162 10157 10154 10149 10144 10140 10137 10132 10127 10123 10121 10118 10116 10114 10111 10109 10108 10106 10104 10101 10097 10094 10089 10086 10084 10082 10082 10082 10082 10081 10079 10077 10075 10073 10071 10069 10067 10066 10065 10064 10062 10062 10061 10060 10059 10058 10057 10056 10056 10055
10327 10322 10317 10312 10307 10302 10298 10294 10289 10284 10279 10274 10270 10266 10261 10256 10251 10246 10241 10236 10231 10227 10222 10217 10213 10207 10202 10197 10194 10192 10187 10180 10173 10169 10165 10160 10155 10150 10147 10142 10137 10134 10130 10126 10121 10117 10114 10112 10110 10108 10106 10104 10102 10100 10097 10094 10091 10087 10083 10080 10078 10077 10077 10077 10076 10075 10073 10071 10069 10067 10066 10064 10062 10061 10060 10059 10058 10057 10056 10056 10054 10054 10052 10052 10051 10051
10321 10316 10311 10306 10301 10296 10291 10287 10282 10277 10272 10267 10263 10259 10254 10249 10244 10239 10234 10229 10223 10218 10213 10209 10205 10201 10195 10189 10185 10182 10180 10175 10168 10163 10159 10154 10148 10144 10140 10136 10131 10127 10124 10119 10115 10111 10108 10106 10104 10102 10100 10098 10096 10094 10091 10088 10084 10081 10077 10074 10073 10072 10072 10072 10071 10069 10067 10066 10064 10062 10061 10059 10058 10057 10056 10054 10054 10053 10052 10051 10050 10049 10048 10047 10047 10046
10313 10309 10304 10299 10294 10289 10285 10281 10275 10269 10264 10259 10255 10251 10246 10241 10237 10232 10227 10221 10216 10210 10205 10201 10197 10192 10188 10182 10177 10174 10171 10167 10162 10157 10152 10147 10142 10137 10133 10129 10126 10122 10118 10113 10109 10106 10102 10100 10097 10096 10094 10092 10091 10088 10085 10081 10078 10074 10071 10069 10068 10068 10067 10067 10066 10064 10062 10061 10059 10057 10056 10054 10053 10052 10051 10050 10049 10049 10047 10047 10046 10045 10044 10043 10042 10042
10306 10302 10297 10292 10287 10281 10277 10273 10269 10263 10257 10252 10247 10242 10237 10233 10229 10224 10219 10214 10207 10202 10197 10192 10188 10184 10180 10176 10170 10166 10163 10159 10154 10149 10144 10139 10134 10131 10127 10123 10120 10116 10112 10108 10104 10100 10097 10094 10092 10091 10089 10087 10084 10082 10079 10075 10072 10069 10066 10064 10064 10064 10063 10062 10060 10059 10057 10056 10054 10052 10051 10050 10049 10048 10047 10046 10046 10044 10044 10042 10042 10041 10040 10039 10039 10038
10300 10295 10291 10286 10281 10275 10269 10264 10260 10256 10251 10245 10239 10235 10230 10226 10222 10217 10212 10207 10202 10196 10190 10185 10180 10176 10171 10167 10162 10158 10154 10150 10145 10140 10136 10132 10128 10124 10120 10117 10114 10111 10107 10103 10099 10095 10092 10089 10087 10086 10084 10081 10079 10076 10072 10069 10066 10063 10061 10060 10059 10059 10058 10057 10055 10054 10052 10051 10050 10048 10047 10046 10044 10044 10042 10042 10041 10041 10039 10039 10037 10037 10036 10036 10035 10034
10293 10287 10283 10279 10275 10269 10263 10257 10252 10247 10243 10237 10232 10226 10222 10217 10214 10209 10205 10201 10196 10190 10184 10178 10173 10167 10163 10158 10154 10150 10146 10142 10136 10131 10128 10124 10121 10117 10114 10111 10107 10104 10101 10097 10094 10091 10087 10084 10082 10081 10079 10076 10074 10071 10067 10064 10061 10058 10057 10056 10055 10054 10053 10051 10050 10049 10048 10047 10046 10044 10042 10041 10040 10039 10039 10038 10037 10036 10036 10034 10034 10033 10032 10032 10031 10031
10287 10282 10276 10272 10267 10262 10257 10251 10246 10241 10236 10231 10225 10219 10214 10210 10206 10201 10196 10192 10187 10182 10177 10172 10166 10161 10156 10151 10146 10142 10139 10134 10129 10124 10121 10117 10114 10111 10108 10104 10101 10098 10095 10091 10088 10085 10082 10080 10078 10076 10074 10071 10068 10065 10062 10059 10056 10054 10052 10051 10051 10049 10048 10047 10046 10045 10044 10042 10041 10039 10038 10037 10036 10036 10034 10034 10033 10032 10031 10031 10030 10029 10029 10028 10027 10027
10281 10276 10270 10265 10260 10254 10249 10244 10238 10233 10228 10223 10218 10213 10209 10204 10199 10194 10189 10184 10179 10175 10171 10165 10160 10154 10149 10144 10139 10136 10132 10128 10123 10118 10114 10111 10107 10104 10102 10098 10095 10092 10089 10086 10082 10079 10077 10075 10073 10071 10069 10066 10063 10060 10057 10054 10051 10050 10049 10047 10046 10045 10043 10042 10042 10041 10040 10039 10037 10036 10034 10033 10032 10032 10031 10030 10029 10029 10027 10027 10026 10026 10025 10024 10024 10024
10274 10268 10262 10257 10252 10247 10241 10236 10231 10226 10221 10216 10211 10206 10201 10196 10192 10187 10182 10177 10172 10168 10163 10159 10153 10148 10142 10137 10133 10129 10126 10122 10117 10112 10108 10105 10102 10099 10096 10092 10089 10086 10082 10079 10076 10074 10072 10070 10069 10067 10064 10061 10058 10055 10052 10049 10047 10046 10044 10043 10042 10041 10039 10038 10037 10037 10036 10034 10033 10032 10031 10029 10029 10028 10027 10026 10026 10025 10024 10024 10023 10022 10022 10021 10021 10020
10267 10261 10256 10251 10246 10240 10234 10229 10224 10219 10214 10208 10203 10198 10193 10188 10183 10178 10174 10169 10164 10160 10156 10151 10146 10141 10136 10131 10126 10122 10119 10116 10112 10107 10102 10099 10096 10093 10091 10087 10084 10080 10077 10074 10071 10068 10066 10066 10064 10062 10059 10056 10053 10050 10047 10045 10043 10042 10041 10039 10037 10036 10036 10034 10034 10032 10031 10030 10029 10027 10027 10026 10025 10024 10023 10022 10022 10021 10021 10020 10019 10019 10019 10018 10017 10017
10261 10256 10251 10245 10239 10234 10228 10222 10217 10212 10206 10201 10196 10191 10186 10181 10175 10170 10165 10161 10157 10152 10147 10142 10138 10134 10129 10125 10121 10116 10114 10110 10106 10102 10097 10094 10091 10087 10085 10082 10079 10075 10072 10069 10066 10064 10062 10061 10059 10057 10054 10051 10048 10045 10042 10041 10039 10038 10037 10035 10034 10032 10032 10031 10030 10029 10027 10026 10025 10024 10023 10022 10021 10021 10020 10019 10019 10018 10017 10017 10016 10016 10016 10015 10014 10014
10255 10250 10244 10239 10233 10227 10222 10216 10211 10205 10199 10194 10189 10184 10179 10173 10167 10162 10157 10153 10149 10144 10139 10135 10130 10126 10122 10119 10115 10111 10107 10104 10101 10097 10093 10089 10085 10082 10079 10077 10074 10071 10067 10064 10061 10059 10057 10056 10055 10052 10049 10046 10043 10041 10039 10037 10036 10034 10033 10032 10031 10029 10028 10027 10026 10025 10024 10022 10021 10021 10019 10019 10017 10017 10016 10016 10015 10015 10014 10014 10013 10012 10012 10012 10012 10012
10249 10244 10238 10232 10227 10221 10215 10209 10203 10197 10192 10186 10181 10176 10171 10165 10159 10154 10149 10146 10141 10137 10132 10128 10124 10119 10116 10112 10109 10106 10102 10099 10095 10091 10087 10084 10081 10077 10074 10071 10069 10066 10062 10059 10057 10054 10053 10052 10051 10048 10044 10041 10038 10036 10034 10033 10032 10031 10029 10028 10027 10026 10025 10024 10022 10021 10020 10019 10018 10017 10016 10015 10014 10014 10013 10012 10012 10012 10011 10011 10011 10010 10009 10009 10009 10009
10244 10238 10232 10226 10221 10215 10209 10202 10196 10191 10185 10179 10174 10168 10162 10157 10152 10147 10142 10138 10134 10129 10125 10121 10117 10113 10109 10106 10102 10100 10097 10094 10090 10086 10082 10079 10075 10072 10069 10067 10064 10061 10058 10055 10052 10050 10049 10047 10046 10043 10040 10037 10034 10032 10031 10029 10028 10027 10026 10025 10024 10022 10021 10020 10019 10018 10017 10016 10014 10014 10012 10012 10011 10011 10010 10009 10009 10009 10008 10008 10007 10007 10007 10006 10006 10007
10236 10231 10224 10219 10213 10207 10202 10196 10190 10184 10178 10172 10167 10161 10156 10151 10146 10141 10136 10131 10127 10122 10118 10114 10111 10107 10104 10100 10097 10094 10091 10088 10085 10081 10077 10073 10070 10067 10064 10062 10059 10057 10054 10051 10048 10046 10044 10043 10042 10039 10036 10033 10031 10029 10027 10026 10024 10024 10022 10021 10020 10019 10018 10017 10016 10014 10014 10012 10011 10010 10009 10009 10008 10007 10007 10007 10006 10006 10006 10005 10005 10004 10004 10004 10004 10004
10229 10223 10217 10212 10206 10200 10194 10189 10183 10177 10172 10166 10161 10155 10149 10144 10139 10134 10129 10125 10121 10116 10112 10108 10104 10101 10098 10094 10091 10087 10085 10082 10079 10076 10072 10068 10065 10062 10060 10057 10054 10052 10050 10047 10045 10042 10039 10038 10037 10035 10032 10029 10027 10026 10024 10022 10021 10020 10019 10018 10017 10016 10015 10014 10012 10011 10011 10009 10008 10007 10006 10006 10005 10004 10004 10004 10004 10003 10003 10002 10002 10002 10002 10002 10002 10002
10222 10216 10211 10205 10199 10193 10187 10182 10176 10171 10165 10159 10154 10149 10143 10138 10133 10128 10124 10119 10115 10111 10107 10102 10099 10096 10092 10089 10086 10082 10079 10076 10074 10071 10067 10064 10061 10057 10056 10052 10050 10048 10046 10044 10041 10039 10036 10034 10032 10031 10029 10026 10024 10022 10021 10019 10018 10017 10016 10015 10014 10013 10012 10011 10009 10008 10007 10006 10006 10004 10004 10003 10002 10002 10001 10001 10001 10001 10001 10000 10000 10000 10000 10000 10000 9999
10214 10209 10203 10197 10192 10186 10181 10175 10169 10164 10158 10153 10147 10142 10137 10132 10127 10123 10118 10114 10109 10106 10101 10097 10094 10091 10087 10084 10081 10078 10075 10072 10069 10066 10062 10059 10056 10054 10051 10049 10046 10044 10042 10040 10038 10036 10033 10031 10029 10027 10025 10023 10021 10019 10017 10016 10015 10014 10013 10012 10011 10010 10009 10007 10007 10006 10004 10004 10002 10002 10001 10001 10000 9999 9999 9999 9999 9998 9998 9998 9998 9997 9997 9997 9997 9997
10207 10201 10196 10191 10185 10179 10174 10168 10162 10157 10152 10146 10141 10136 10131 10127 10122 10117 10113 10109 10105 10101 10097 10093 10089 10086 10082 10079 10076 10074 10071 10068 10065 10062 10059 10056 10052 10050 10047 10045 10043 10041 10039 10037 10034 10032 10030 10027 10026 10024 10022 10020 10018 10017 10015 10013 10012 10011 10010 10009 10008 10007 10006 10005 10004 10002 10002 10001 10000 9999 9999 9998 9997 9997 9997 9996 9996 9996 9996 9996 9996 9996 9996 9996 9995 9995
10199 10194 10189 10183 10178 10172 10167 10161 10156 10151 10145 10140 10136 10131 10126 10121 10117 10112 10108 10104 10100 10096 10092 10089 10086 10082 10078 10075 10072 10069 10066 10064 10061 10057 10054 10052 10049 10046 10044 10041 10039 10037 10036 10033 10031 10029 10026 10024 10022 10021 10019 10017 10016 10014 10012 10011 10009 10008 10007 10007 10006 10005 10004 10002 10001 10001 9999 9999 9997 9997 9996 9996 9995 9995 9994 9994 9994 9994 9994 9994 9994 9994 9994 9994 9994 9993
10192 10186 10181 10176 10171 10166 10160 10154 10149 10144 10139 10134 10129 10125 10121 10116 10112 10107 10103 10099 10096 10092 10088 10085 10081 10078 10074 10071 10068 10065 10062 10059 10056 10054 10051 10048 10046 10043 10041 10038 10036 10034 10032 10031 10028 10026 10024 10022 10019 10018 10016 10015 10013 10011 10009 10008 10007 10006 10005 10004 10003 10002 10001 10000 9999 9998 9997 9996 9996 9994 9994 9993 9993 9992 9992 9992 9992 9992 9992 9992 9992 9992 9992 9992 9992 9992
10185 10179 10174 10169 10164 10159 10154 10148 10143 10138 10132 10128 10124 10119 10115 10111 10106 10102 10098 10094 10091 10087 10084 10081 10077 10074 10071 10067 10064 10061 10058 10056 10052 10050 10047 10045 10042 10040 10037 10035 10033 10031 10029 10027 10026 10023 10021 10019 10017 10016 10014 10012 10011 10009 10007 10006 10004 10003 10002 10002 10001 10000 9999 9998 9997 9996 9995 9994 9993 9992 9992 9991 9991 9991 9990 9990 9990 9990 9991 9991 9991 9991 9991 9991 9991 9991
10178 10172 10167 10162 10157 10152 10147 10142 10137 10132 10127 10122 10118 10114 10109 10106 10101 10097 10094 10090 10087 10083 10080 10076 10073 10070 10067 10064 10061 10058 10055 10052 10049 10046 10044 10041 10039 10037 10034 10032 10031 10029 10027 10025 10022 10021 10019 10017 10015 10013 10011 10010 10008 10007 10005 10004 10002 10001 10000 9999 9998 9997 9997 9996 9995 9994 9993 9992 9991 9991 9990 9989 9989 9988 9988 9988 9988 9989 9989 9989 9989 9989 9989 9989 9989 9989
10171 10166 10161 10156 10151 10146 10141 10136 10131 10126 10121 10117 10113 10109 10104 10101 10096 10093 10089 10086 10082 10079 10076 10072 10069 10066 10063 10061 10057 10055 10052 10049 10046 10043 10041 10038 10036 10034 10032 10030 10028 10026 10024 10022 10020 10019 10017 10015 10013 10011 10009 10007 10006 10004 10003 10001 10000 9999 9997 9997 9996 9995 9994 9994 9993 9992 9991 9991 9990 9989 9988 9987 9987 9987 9987 9987 9987 9987 9987 9987 9987 9987 9987 9987 9987 9987
10164 10159 10154 10149 10145 10140 10135 10129 10125 10120 10116 10112 10108 10104 10100 10096 10092 10088 10085 10082 10079 10075 10072 10069 10066 10062 10060 10057 10054 10051 10049 10046 10043 10040 10037 10035 10033 10031 10029 10027 10025 10023 10021 10019 10017 10016 10014 10012 10011 10009 10007 10006 10004 10002 10001 9999 9998 9997 9996 9994 9994 9993 9992 9992 9991 9991 9990 9989 9989 9988 9987 9987 9986 9986 9986 9986 9986 9986 9986 9986 9986 9986 9986 9986 9986 9986
10159 10153 10148 10143 10139 10134 10129 10124 10119 10115 10111 10107 10103 10099 10095 10091 10087 10084 10081 10077 10074 10071 10068 10065 10062 10059 10056 10054 10051 10048 10046 10042 10040 10037 10035 10032 10030 10028 10026 10024 10022 10021 10019 10017 10016 10014 10012 10011 10009 10007 10006 10004 10002 10001 9999 9997 9996 9995 9994 9992 9992 9991 9990 9989 9989 9988 9988 9987 9987 9987 9986 9986 9986 9986 9986 9985 9985 9985 9985 9985 9984 9984 9984 9984 9984 9984
10153 10147 10142 10137 10132 10128 10123 10118 10114 10110 10106 10102 10098 10094 10091 10087 10083 10080 10076 10073 10071 10067 10064 10061 10059 10056 10053 10050 10047 10045 10042 10040 10037 10034 10032 10030 10027 10026 10024 10022 10021 10019 10017 10015 10013 10012 10010 10008 10007 10005 10004 10002 10001 9999 9997 9996 9994 9993 9992 9991 9990 9989 9988 9987 9987 9987 9986 9986 9986 9986 9986 9986 9985 9985 9984 9984 9984 9984 9983 9983 9982 9982 9982 9982 9983 9983
10147 10142 10137 10132 10127 10123 10118 10114 10109 10106 10102 10097 10094 10090 10086 10083 10079 10076 10072 10069 10066 10064 10061 10058 10055 10052 10049 10047 10044 10042 10039 10037 10034 10032 10029 10027 10025 10023 10021 10020 10018 10016 10015 10013 10011 10009 10008 10006 10005 10003 10002 10000 9999 9997 9996 9994 9993 9992 9991 9989 9988 9987 9986 9986 9986 9985 9985 9985 9985 9985 9984 9984 9984 9984 9983 9982 9982 9982 9981 9981 9981 9981 9981 9982 9982 9982
10142 10137 10132 10128 10123 10118 10114 10109 10106 10101 10097 10093 10089 10086 10082 10079 10076 10072 10069 10066 10063 10060 10057 10054 10052 10049 10046 10044 10041 10039 10037 10034 10032 10029 10027 10025 10023 10021 10019 10017 10016 10014 10012 10011 10009 10007 10006 10004 10003 10001 10000 9998 9997 9996 9994 9993 9992 9991 9989 9988 9987 9986 9986 9985 9984 9984 9984 9984 9984 9984 9983 9982 9982 9982 9981 9981 9980 9980 9980 9980 9980 9980 9981 9981 9981 9981
10137 10132 10128 10123 10119 10114 10109 10105 10101 10097 10093 10089 10086 10082 10079 10076 10072 10069 10066 10062 10059 10057 10054 10051 10049 10046 10043 10041 10039 10036 10034 10032 10029 10027 10025 10023 10021 10019 10017 10016 10014 10012 10011 10009 10007 10006 10004 10002 10001 9999 9998 9997 9996 9994 9992 9991 9990 9989 9987 9987 9986 9985 9984 9984 9984 9983 9983 9982 9982 9982 9981 9981 9980 9980 9979 9979 9979 9979 9979 9979 9979 9979 9979 9979 9980 9980
10132 10127 10123 10119 10114 10110 10106 10101 10097 10093 10089 10086 10082 10079 10076 10072 10069 10066 10062 10059 10056 10054 10051 10048 10046 10043 10041 10038 10036 10034 10032 10029 10027 10025 10023 10021 10019 10017 10015 10014 10012 10010 10009 10007 10006 10004 10002 10001 9999 9998 9996 9995 9994 9992 9991 9990 9989 9987 9987 9986 9985 9984 9984 9983 9983 9982 9982 9981 9981 9980 9979 9979 9979 9978 9978 9978 9978 9978 9978 9978 9978 9978 9978 9979 9979 9979
10127 10123 10119 10114 10110 10106 10101 10097 10094 10089 10086 10082 10079 10076 10072 10069 10066 10062 10059 10056 10054 10051 10048 10045 10042 10040 10038 10036 10033 10031 10029 10027 10025 10023 10021 10019 10017 10016 10014 10012 10010 10008 10007 10005 10004 10002 10001 9999 9998 9996 9995 9994 9992 9991 9989 9989 9987 9987 9986 9985 9984 9984 9983 9982 9982 9981 9980 9979 9979 9978 9977 9977 9977 9977 9977 9977 9977 9977 9977 9977 9977 9977 9977 9977 9977 9977
10123 10119 10114 10110 10106 10102 10097 10094 10090 10086 10082 10079 10076 10072 10069 10066 10062 10059 10056 10054 10051 10048 10046 10042 10040 10038 10036 10033 10031 10029 10027 10025 10023 10021 10019 10017 10016 10014 10012 10010 10008 10007 10005 10004 10002 10000 9999 9997 9996 9995 9994 9992 9991 9989 9988 9987 9986 9986 9985 9984 9984 9983 9982 9981 9980 9979 9979 9978 9977 9977 9977 9976 9976 9976 9976 9976 9976 9976 9976 9976 9976 9976 9976 9976 9976 9976
10119 10115 10111 10106 10102 10098 10094 10090 10086 10082 10079 10076 10072 10069 10066 10063 10060 10057 10054 10051 10048 10046 10042 10040 10038 10036 10033 10031 10029 10027 10025 10023 10021 10019 10018 10016 10014 10012 10011 10009 10007 10005 10004 10002 10001 9999 9997 9996 9994 9993 9992 9991 9990 9989 9987 9986 9986 9985 9984 9984 9982 9982 9981 9979 9979 9977 9977 9977 9976 9976 9976 9976 9976 9975 9975 9975 9975 9975 9975 9975 9976 9976 9976 9976 9976 9976
10115 10111 10107 10103 10099 10094 10091 10087 10083 10079 10076 10073 10069 10066 10063 10060 10057 10054 10051 10049 10046 10043 10041 10038 10036 10034 10031 10029 10027 10025 10023 10021 10019 10018 10016 10014 10012 10011 10009 10007 10006 10004 10002 10001 9999 9997 9996 9995 9993 9992 9991 9990 9989 9987 9986 9986 9985 9984 9983 9982 9981 9980 9979 9977 9977 9976 9976 9976 9975 9975 9974 9974 9974 9974 9974 9974 9974 9974 9974 9974 9974 9974 9974 9974 9974 9974
10111 10107 10104 10099 10096 10091 10087 10084 10080 10077 10073 10070 10067 10064 10061 10057 10054 10052 10049 10046 10043 10041 10038 10036 10034 10031 10029 10027 10025 10023 10021 10019 10018 10016 10014 10013 10011 10009 10007 10006 10004 10003 10001 10000 9998 9997 9995 9994 9992 9991 9990 9989 9987 9987 9986 9984 9984 9982 9981 9981 9979 9978 9977 9976 9976 9975 9974 9974 9974 9974 9974 9973 9973 9973 9973 9973 9973 9973 9973 9974 9974 9974 9973 9973 9973 9973